Visibility
15.0 15.0 15.0 15.0 15.0 15.0 15.0 15.0 15.0 15.0 15.0 15.0 15.0 15.0 15.0 15.0 15.0 15.0 15.0 15.0 15.0 3.6 3.0 1.7 4.5 11.5 14.8 15.0 15.0 15.0 15.0 15.0 15.0 15.0 15.0 15.0 15.0 15.0 15.0 15.0 15.0 15.0 14.9
15.0 15.0 15.0 15.0 15.0 15.0 15.0 15.0 15.0 15.0 15.0 15.0 15.0 15.0 15.0 15.0 15.0 15.0 15.0 15.0 15.0 15.0 6.8 1.6 5.3 8.4 7.5 15.0 11.3 15.0 15.0 15.0 15.0 15.0 15.0 15.0 15.0 0.5 15.0 3.5 15.0 15.0 15.0
15.0 15.0 15.0 15.0 15.0 15.0 15.0 15.0 15.0 15.0 15.0 15.0 15.0 15.0 15.0 15.0 15.0 15.0 15.0 15.0 15.0 15.0 15.0 14.0 4.1 3.1 5.4 6.7 12.6 15.0 15.0 15.0 15.0 15.0 15.0 15.0 15.0 15.0 13.3 0.2 13.8 15.0 15.0
15.0 15.0 15.0 15.0 15.0 15.0 15.0 15.0 15.0 15.0 15.0 15.0 15.0 15.0 15.0 15.0 15.0 15.0 15.0 15.0 15.0 15.0 15.0 15.0 15.0 3.4 3.2 2.8 7.0 14.9 15.0 15.0 15.0 15.0 15.0 15.0 15.0 15.0 0.4 7.2 15.0 15.0 15.0
15.0 15.0 15.0 15.0 15.0 15.0 15.0 15.0 15.0 15.0 15.0 15.0 15.0 15.0 15.0 15.0 15.0 15.0 15.0 15.0 15.0 15.0 15.0 15.0 15.0 13.5 5.4 2.8 2.0 15.0 12.8 15.0 15.0 15.0 15.0 15.0 15.0 15.0 15.0 15.0 1.8 0.3 5.9
15.0 15.0 15.0 15.0 15.0 15.0 15.0 15.0 15.0 15.0 15.0 15.0 15.0 15.0 15.0 15.0 15.0 15.0 15.0 15.0 15.0 15.0 15.0 15.0 15.0 15.0 12.8 9.8 1.8 2.1 12.7 15.0 15.0 15.0 15.0 15.0 15.0 15.0 15.0 15.0 15.0 15.0 15.0
15.0 15.0 15.0 15.0 15.0 15.0 15.0 15.0 15.0 15.0 15.0 15.0 15.0 15.0 15.0 15.0 15.0 15.0 15.0 15.0 15.0 15.0 15.0 15.0 15.0 15.0 15.0 15.0 11.2 1.7 2.0 5.3 15.0 15.0 15.0 15.0 15.0 15.0 15.0 15.0 15.0 11.5 8.2
15.0 15.0 15.0 15.0 15.0 15.0 15.0 15.0 15.0 15.0 15.0 15.0 15.0 15.0 15.0 15.0 15.0 15.0 15.0 15.0 15.0 15.0 15.0 15.0 15.0 15.0 15.0 14.9 14.5 15.0 11.3 6.9 3.3 14.4 15.0 15.0 15.0 15.0 15.0 15.0 15.0 15.0 10.3
15.0 15.0 15.0 15.0 15.0 15.0 15.0 15.0 15.0 15.0 15.0 15.0 15.0 15.0 15.0 15.0 15.0 15.0 15.0 15.0 15.0 15.0 15.0 15.0 15.0 15.0 15.0 15.0 15.0 15.0 14.1 2.5 12.1 12.5 15.0 15.0 15.0 15.0 15.0 15.0 15.0 15.0 1.0
15.0 15.0 15.0 15.0 15.0 15.0 15.0 15.0 15.0 15.0 15.0 15.0 15.0 15.0 15.0 15.0 15.0 15.0 15.0 15.0 15.0 15.0 15.0 15.0 15.0 15.0 15.0 15.0 15.0 15.0 9.9 15.0 11.4 15.0 8.4 15.0 15.0 15.0 15.0 15.0 15.0 15.0 15.0
15.0 15.0 15.0 15.0 15.0 15.0 15.0 15.0 15.0 15.0 15.0 15.0 15.0 15.0 15.0 15.0 15.0 15.0 15.0 15.0 15.0 15.0 15.0 15.0 15.0 15.0 15.0 15.0 15.0 15.0 15.0 15.0 7.5 10.7 15.0 6.8 12.9 15.0 15.0 15.0 15.0 15.0 15.0
15.0 15.0 15.0 15.0 15.0 15.0 15.0 15.0 15.0 15.0 15.0 15.0 15.0 15.0 15.0 15.0 15.0 15.0 15.0 15.0 15.0 15.0 15.0 15.0 15.0 15.0 15.0 15.0 15.0 15.0 15.0 14.9 7.4 5.6 14.9 15.0 14.9 14.7 11.1 3.8 14.6 15.0 15.0
15.0 15.0 15.0 15.0 15.0 15.0 15.0 15.0 15.0 15.0 15.0 15.0 15.0 15.0 15.0 15.0 15.0 15.0 15.0 15.0 15.0 15.0 15.0 15.0 15.0 15.0 15.0 15.0 15.0 15.0 15.0 15.0 4.8 8.7 6.7 15.0 15.0 15.0 14.7 7.6 5.9 15.0 15.0
15.0 15.0 15.0 15.0 15.0 15.0 15.0 15.0 15.0 15.0 15.0 14.9 10.9 14.7 15.0 15.0 15.0 15.0 15.0 15.0 15.0 15.0 15.0 15.0 15.0 15.0 15.0 15.0 15.0 15.0 15.0 15.0 15.0 11.4 4.2 15.0 15.0 15.0 15.0 15.0 4.4 5.4 13.7
15.0 15.0 15.0 15.0 15.0 15.0 15.0 15.0 15.0 15.0 15.0 2.9 8.2 14.0 15.0 15.0 15.0 15.0 15.0 15.0 15.0 15.0 15.0 15.0 15.0 15.0 15.0 15.0 15.0 15.0 15.0 15.0 15.0 15.0 3.0 4.9 14.9 15.0 15.0 15.0 14.9 13.6 5.7
15.0 15.0 15.0 15.0 10.1 5.4 7.2 6.3 12.4 12.8 8.2 3.8 5.6 13.6 5.6 13.4 15.0 15.0 15.0 15.0 11.8 15.0 15.0 15.0 15.0 15.0 15.0 15.0 15.0 15.0 15.0 15.0 15.0 15.0 9.3 7.0 15.0 15.0 15.0 15.0 14.0 15.0 15.0
15.0 15.0 15.0 6.7 7.5 12.3 7.7 1.2 2.2 7.1 8.3 6.2 3.3 8.1 4.6 3.4 15.0 15.0 14.3 3.5 7.1 3.3 12.6 15.0 15.0 15.0 15.0 15.0 14.3 15.0 15.0 15.0 15.0 15.0 15.0 3.5 14.7 6.3 15.0 15.0 15.0 13.1 15.0
15.0 15.0 15.0 7.8 15.0 15.0 15.0 9.3 10.9 13.3 3.3 2.2 2.1 4.1 0.5 1.2 15.0 12.6 4.9 2.8 0.7 5.0 2.5 1.4 12.4 9.0 15.0 15.0 15.0 15.0 15.0 15.0 15.0 15.0 15.0 14.0 2.3 6.7 15.0 15.0 15.0 14.6 11.0
15.0 15.0 15.0 15.0 15.0 15.0 15.0 5.2 5.2 15.0 11.4 2.3 1.6 0.6 0.2 0.2 0.7 1.0 1.4 0.5 0.1 1.4 7.8 15.0 0.5 4.9 7.1 15.0 15.0 15.0 15.0 14.4 15.0 15.0 15.0 8.2 8.6 11.3 12.5 15.0 15.0 15.0 13.4
15.0 15.0 15.0 15.0 15.0 15.0 15.0 3.1 7.4 5.7 0.8 0.4 0.2 0.2 0.1 0.1 0.1 0.4 0.2 0.1 0.2 0.2 3.7 0.3 7.2 1.8 3.8 7.1 11.7 15.0 15.0 15.0 15.0 15.0 15.0 15.0 15.0 15.0 15.0 15.0 15.0 0.2 12.9
15.0 15.0 15.0 15.0 15.0 15.0 15.0 3.6 6.5 7.8 4.2 0.2 0.2 0.2 0.1 0.1 0.1 0.1 0.2 0.1 0.1 0.3 3.5 0.4 0.4 1.7 2.2 0.0 9.5 14.4 15.0 15.0 15.0 15.0 15.0 15.0 15.0 15.0 15.0 15.0 15.0 9.1 10.5
15.0 15.0 12.4 15.0 15.0 15.0 15.0 3.1 6.2 15.0 3.7 1.4 0.2 0.2 0.2 0.1 0.1 0.1 0.2 0.2 0.3 0.2 0.3 0.4 0.4 10.2 0.1 0.0 0.4 12.2 14.7 15.0 15.0 6.1 13.5 15.0 14.1 15.0 15.0 15.0 15.0 15.0 12.5
15.0 15.0 15.0 15.0 15.0 15.0 15.0 3.0 14.8 8.0 3.0 6.8 0.3 0.2 0.5 0.2 0.1 0.1 0.1 0.1 0.2 0.1 0.2 0.1 0.1 0.3 0.4 0.1 0.0 8.0 15.0 14.8 3.8 6.0 15.0 12.3 3.5 3.6 1.9 15.0 14.9 2.0 4.5
15.0 15.0 15.0 15.0 15.0 15.0 15.0 15.0 15.0 13.0 4.5 6.3 15.0 0.3 0.1 0.2 0.4 0.2 0.4 0.1 0.1 0.1 0.2 0.1 0.2 0.2 0.2 0.2 0.1 10.1 15.0 15.0 14.8 2.7 14.4 0.8 0.2 3.6 10.9 0.5 8.2 9.2 6.6
13.2 15.0 15.0 15.0 15.0 15.0 15.0 15.0 15.0 5.3 1.4 15.0 15.0 14.4 0.2 0.2 0.3 0.7 0.2 0.1 0.1 0.1 0.1 0.1 0.1 0.1 0.1 0.1 0.1 0.1 0.1 15.0 13.4 5.2 14.6 5.7 0.1 0.1 0.2 0.3 0.1 0.3 6.9
6.2 15.0 15.0 15.0 15.0 15.0 15.0 15.0 15.0 5.5 1.0 15.0 15.0 0.8 2.7 0.2 0.2 0.1 0.7 11.3 0.8 0.2 0.1 0.2 0.1 0.1 0.2 0.2 0.2 4.8 0.9 14.8 1.7 0.1 0.1 3.9 15.0 10.8 2.2 0.8 0.0 0.1 0.1